EN

Hourly Weather Barra Mansa

Today, 18 January, Monday

Time Temperature Precipitation Wind Pressure Humidity
00:00 +23°C° 0 mm 1 mps 720 mmHg 93%
01:00 +22°C° 0 mm 1 mps 719 mmHg 94%
02:00 +22°C° 0 mm 1 mps 719 mmHg 95%
03:00 +22°C° 0 mm 1 mps 719 mmHg 95%
04:00 +22°C° 0 mm 1 mps 719 mmHg 95%
05:00 +22°C° 0 mm 1 mps 719 mmHg 95%
06:00 +21°C° 0 mm 1 mps 719 mmHg 96%
07:00 +23°C° 0 mm 1 mps 720 mmHg 89%
08:00 +25°C° 0 mm 1 mps 720 mmHg 83%
09:00 +27°C° 0 mm 1 mps 721 mmHg 76%
10:00 +29°C° 0.1 mm 1 mps 721 mmHg 73%
11:00 +30°C° 0.1 mm 1 mps 721 mmHg 70%
12:00 +31°C° 0.1 mm 1 mps 721 mmHg 67%
13:00 +31°C° 0.8 mm 1 mps 721 mmHg 71%
14:00 +31°C° 0.8 mm 2 mps 720 mmHg 75%
15:00 +30°C° 0.8 mm 2 mps 720 mmHg 79%
16:00 +29°C° 1.1 mm 1 mps 720 mmHg 83%
17:00 +28°C° 1.1 mm 1 mps 720 mmHg 87%
18:00 +27°C° 1.1 mm 1 mps 719 mmHg 91%
19:00 +26°C° 0.3 mm 1 mps 720 mmHg 92%
20:00 +25°C° 0.3 mm 1 mps 720 mmHg 92%
21:00 +24°C° 0.3 mm 1 mps 721 mmHg 93%
22:00 +24°C° 0.1 mm 1 mps 721 mmHg 94%
23:00 +21°C° 0.1 mm 0 mps 721 mmHg 94%

Tomorrow, 19 January, Tuesday

Time Temperature Precipitation Wind Pressure Humidity
00:00 +21°C° 0.1 mm 0 mps 721 mmHg 94%
01:00 +21°C° 0 mm 0 mps 721 mmHg 94%
02:00 +20°C° 0 mm 0 mps 720 mmHg 94%
03:00 +20°C° 0 mm 0 mps 720 mmHg 94%
04:00 +20°C° 0 mm 0 mps 720 mmHg 94%
05:00 +19°C° 0 mm 0 mps 720 mmHg 95%
06:00 +19°C° 0 mm 0 mps 721 mmHg 95%
07:00 +21°C° 0 mm 0 mps 721 mmHg 87%
08:00 +24°C° 0 mm 0 mps 722 mmHg 79%
09:00 +28°C° 0 mm 1 mps 722 mmHg 71%
10:00 +29°C° 0 mm 1 mps 722 mmHg 65%
11:00 +30°C° 0 mm 1 mps 722 mmHg 59%
12:00 +31°C° 0 mm 1 mps 722 mmHg 52%
13:00 +31°C° 0 mm 2 mps 722 mmHg 54%
14:00 +31°C° 0 mm 2 mps 721 mmHg 55%
15:00 +31°C° 0 mm 2 mps 721 mmHg 57%
16:00 +30°C° 0 mm 2 mps 721 mmHg 64%
17:00 +28°C° 0 mm 1 mps 721 mmHg 72%
18:00 +27°C° 0 mm 1 mps 720 mmHg 80%
19:00 +25°C° 0 mm 1 mps 721 mmHg 84%
20:00 +24°C° 0 mm 1 mps 721 mmHg 89%
21:00 +23°C° 0 mm 1 mps 722 mmHg 93%
22:00 +22°C° 0 mm 1 mps 722 mmHg 93%
23:00 +20°C° 0 mm 0 mps 722 mmHg 94%

Day after tomorrow, 20 January, Wednesday

Time Temperature Precipitation Wind Pressure Humidity
00:00 +19°C° 0 mm 0 mps 722 mmHg 94%
01:00 +19°C° 0 mm 0 mps 722 mmHg 94%
02:00 +19°C° 0 mm 0 mps 721 mmHg 94%
03:00 +19°C° 0 mm 0 mps 721 mmHg 94%
04:00 +19°C° 0 mm 0 mps 721 mmHg 94%
05:00 +19°C° 0 mm 0 mps 722 mmHg 94%
06:00 +19°C° 0 mm 0 mps 722 mmHg 93%
07:00 +21°C° 0 mm 0 mps 722 mmHg 87%
08:00 +25°C° 0 mm 1 mps 723 mmHg 81%
09:00 +27°C° 0 mm 1 mps 723 mmHg 75%
10:00 +28°C° 0 mm 1 mps 723 mmHg 69%
11:00 +29°C° 0 mm 1 mps 723 mmHg 64%
12:00 +31°C° 0 mm 1 mps 722 mmHg 58%
13:00 +31°C° 0 mm 2 mps 722 mmHg 59%
14:00 +31°C° 0 mm 2 mps 721 mmHg 60%
15:00 +31°C° 0 mm 2 mps 721 mmHg 60%
16:00 +30°C° 0.1 mm 2 mps 721 mmHg 68%
17:00 +28°C° 0.1 mm 1 mps 721 mmHg 75%
18:00 +27°C° 0.1 mm 1 mps 721 mmHg 82%
19:00 +26°C° 0 mm 1 mps 721 mmHg 85%
20:00 +24°C° 0 mm 1 mps 721 mmHg 87%
21:00 +21°C° 0 mm 0 mps 722 mmHg 90%
22:00 +20°C° 0 mm 0 mps 722 mmHg 90%
23:00 +20°C° 0 mm 0 mps 722 mmHg 91%

21 January, Thursday

Time Temperature Precipitation Wind Pressure Humidity
00:00 +20°C° 0 mm 0 mps 722 mmHg 91%
01:00 +19°C° 0 mm 0 mps 722 mmHg 92%
02:00 +19°C° 0 mm 0 mps 722 mmHg 92%
03:00 +19°C° 0 mm 0 mps 721 mmHg 93%
04:00 +19°C° 0 mm 0 mps 722 mmHg 93%
05:00 +19°C° 0 mm 0 mps 722 mmHg 94%
06:00 +19°C° 0 mm 0 mps 722 mmHg 94%
07:00 +21°C° 0 mm 0 mps 723 mmHg 87%
08:00 +25°C° 0 mm 1 mps 723 mmHg 80%
09:00 +26°C° 0 mm 1 mps 724 mmHg 73%
10:00 +28°C° 0 mm 2 mps 724 mmHg 68%
11:00 +29°C° 0 mm 2 mps 724 mmHg 63%
12:00 +30°C° 0 mm 2 mps 723 mmHg 58%
13:00 +30°C° 0 mm 2 mps 723 mmHg 57%
14:00 +31°C° 0 mm 3 mps 723 mmHg 56%
15:00 +31°C° 0 mm 3 mps 722 mmHg 56%
16:00 +29°C° 0 mm 2 mps 722 mmHg 63%
17:00 +28°C° 0 mm 2 mps 722 mmHg 71%
18:00 +26°C° 0 mm 1 mps 722 mmHg 79%
19:00 +25°C° 0 mm 1 mps 723 mmHg 83%
20:00 +23°C° 0 mm 1 mps 723 mmHg 86%
21:00 +20°C° 0 mm 0 mps 723 mmHg 90%
22:00 +19°C° 0 mm 0 mps 723 mmHg 91%
23:00 +19°C° 0 mm 0 mps 723 mmHg 91%

22 January, Friday

Time Temperature Precipitation Wind Pressure Humidity
00:00 +19°C° 0 mm 0 mps 723 mmHg 91%
01:00 +18°C° 0 mm 0 mps 723 mmHg 92%
02:00 +18°C° 0 mm 0 mps 723 mmHg 93%
03:00 +18°C° 0 mm 0 mps 723 mmHg 93%
04:00 +18°C° 0 mm 0 mps 723 mmHg 94%
05:00 +18°C° 0 mm 0 mps 724 mmHg 94%
06:00 +18°C° 0 mm 0 mps 724 mmHg 94%
07:00 +20°C° 0 mm 0 mps 724 mmHg 87%
08:00 +24°C° 0 mm 1 mps 725 mmHg 80%
09:00 +26°C° 0 mm 1 mps 725 mmHg 73%
10:00 +27°C° 0 mm 2 mps 725 mmHg 68%
11:00 +28°C° 0 mm 2 mps 725 mmHg 64%
12:00 +29°C° 0 mm 2 mps 725 mmHg 59%
13:00 +30°C° 0 mm 2 mps 724 mmHg 58%
14:00 +30°C° 0 mm 2 mps 724 mmHg 57%
15:00 +30°C° 0 mm 2 mps 723 mmHg 56%
16:00 +29°C° 0 mm 2 mps 723 mmHg 64%
17:00 +27°C° 0 mm 2 mps 723 mmHg 72%
18:00 +26°C° 0 mm 2 mps 723 mmHg 80%
19:00 +25°C° 0.1 mm 1 mps 724 mmHg 85%
20:00 +23°C° 0.1 mm 1 mps 724 mmHg 89%
21:00 +20°C° 0.1 mm 0 mps 724 mmHg 94%
22:00 +20°C° 0.1 mm 0 mps 724 mmHg 94%
23:00 +20°C° 0.1 mm 0 mps 724 mmHg 94%

23 January, Saturday

Time Temperature Precipitation Wind Pressure Humidity
00:00 +20°C° 0.1 mm 0 mps 724 mmHg 94%
01:00 +19°C° 0 mm 0 mps 724 mmHg 95%
02:00 +19°C° 0 mm 0 mps 724 mmHg 95%
03:00 +19°C° 0 mm 0 mps 723 mmHg 96%
04:00 +19°C° 0 mm 0 mps 724 mmHg 96%
05:00 +18°C° 0 mm 0 mps 724 mmHg 95%
06:00 +18°C° 0 mm 0 mps 724 mmHg 95%
07:00 +22°C° 0 mm 1 mps 724 mmHg 87%
08:00 +24°C° 0 mm 1 mps 725 mmHg 80%
09:00 +26°C° 0 mm 1 mps 725 mmHg 72%
10:00 +27°C° 0 mm 1 mps 725 mmHg 67%
11:00 +28°C° 0 mm 2 mps 725 mmHg 63%
12:00 +29°C° 0 mm 2 mps 725 mmHg 58%
13:00 +29°C° 0 mm 2 mps 724 mmHg 59%
14:00 +30°C° 0 mm 2 mps 724 mmHg 60%
15:00 +30°C° 0 mm 2 mps 723 mmHg 61%
16:00 +29°C° 0.2 mm 2 mps 723 mmHg 69%
17:00 +27°C° 0.2 mm 2 mps 723 mmHg 77%
18:00 +26°C° 0.2 mm 1 mps 722 mmHg 84%
19:00 +25°C° 0.1 mm 1 mps 723 mmHg 87%
20:00 +23°C° 0.1 mm 1 mps 723 mmHg 90%
21:00 +20°C° 0.1 mm 0 mps 723 mmHg 93%
22:00 +20°C° 0.1 mm 0 mps 723 mmHg 94%
23:00 +19°C° 0.1 mm 0 mps 723 mmHg 94%
Show more

We Need Your Consent

Meteoprog and our Service Providers may store and access personal data such as cookies, device identifiers or other similar technologies on your device and process such data to personalise content and ads, as well as provide social media features and to analyse the traffic.

  • Store and/or access information on your device

    Cookies, device identifiers or other information can be stored or accessed on your device for the purposes indicated above.

  • Personalised ads and content, ad and content measurement, audience insights, and products development

    Ads and content can be personalised based on a profile. More data can be added to better personalise ads and content. Ad and content performance can be measured. Insights about the audience who saw the ads and content can be derived. Such data can be used to develop or improve user’s experience, systems and software.

By clicking ‘I Agree’ you will allow the use of indicated cookies, device identifiers, web beacons or other similar technologies. Your settings can be changed in the browser on your device.

For certain purposes, legitimate interests may be relied on, rather than consent. You can read more about this in our Privacy and Cookie Policy.